Location: Unspecified
(0.0000°N, 0.0000°E)
Time: 14:57:08
(UTC+00:00)

Envisat - Pass Details

Date: 24 November 2020
Orbit: 764 x 766 km, 98.1° (Epoch: 28 November)

Event Time Altitude Azimuth Distance (km) Brightness Sun altitude
Rises 04:51:36 0° 32° (NNE) 3,214 6.4 -12.9°
Reaches altitude 10° 04:54:09 10° 43° (NE) 2,292 5.7 -12.3°
Maximum altitude 04:58:30 29° 102° (ESE) 1,362 5.2 -11.3°
Drops below altitude 10° 05:02:52 10° 162° (SSE) 2,301 6.1 -10.3°
Sets 05:05:25 0° 172° (S) 3,230 6.7 -9.7°
